Moses Lake, WA

7:53 PM PDT on May 22, 2017 (GMT -0700)
Grant County International

Weather History for KMWH - January, 2014

Change the Weather History Date:

Saturday, January 18, 2014

  Actual Average Record
Temperature  
Mean Temperature 25 °F 30 °F  
Max Temperature 31 °F 36 °F 53 °F (2015)
Min Temperature 19 °F 24 °F 6 °F (1984)
Degree Days  
Heating Degree Days 40 35  
Month to date heating degree days 549 649  
Since 1 July heating degree days 3233 3236  
Cooling Degree Days 0 0  
Month to date cooling degree days 0 0  
Year to date cooling degree days 0 0  
Moisture  
Dew Point 25 °F    
Average Humidity 93    
Maximum Humidity 100    
Minimum Humidity 85    
Precipitation  
Precipitation T in 0.03 in 0.33 in (1986)
Month to date precipitation 0.04 0.81  
Year to date precipitation 0.04 0.81  
Sea Level Pressure  
Sea Level Pressure 30.39 in    
Wind  
Wind Speed 3 mph (North)    
Max Wind Speed 8 mph    
Max Gust Speed 9 mph    
Visibility 5 miles    
Events Fog , Snow    
T = Trace of Precipitation, MM = Missing Value Source: NWS Daily Summary

Daily Weather History Graph

Daily Weather History Graph

Search for Another Location

Airport or City:

Trip Planner

Search our weather history database for the weather conditions in past years. The results will help you decide how hot, cold, wet, or windy it might be!

Date:

Astronomy

Jan. 18, 2014 Rise Set
Actual Time 7:37 AM PST 4:38 PM PST
Civil Twilight 7:03 AM PST 5:12 PM PST
Nautical Twilight 6:25 AM PST 5:50 PM PST
Astronomical Twilight 5:48 AM PST 6:27 PM PST
Moon 7:39 PM PST (1/18) 8:26 AM PST (1/18)
Length of Visible Light 10h 09m
Length of Day
9h 01m
Waning Gibbous, 94% of the Moon is Illuminated
Jan 18
Waning Gibbous
Jan 23
Last Quarter
Jan 30
New
Feb 6
First Quarter
Feb 14
Full

Hourly Weather History & Observations

Time (PST) Temp. Windchill Dew Point Humidity Pressure Visibility Wind Dir Wind Speed Gust Speed Precip Events Conditions
12:52 AM 21.0 °F 13.4 °F 19.0 °F 92% 30.43 in 10.0 mi North 5.8 mph - N/A   Clear
1:52 AM 19.9 °F 12.1 °F 17.1 °F 89% 30.44 in 10.0 mi North 5.8 mph - N/A   Clear
2:28 AM 19.4 °F 11.5 °F 17.6 °F 93% 30.39 in 10.0 mi North 5.8 mph - N/A   Scattered Clouds
2:37 AM 19.4 °F 11.5 °F 17.6 °F 93% 30.39 in 10.0 mi North 5.8 mph - N/A   Mostly Cloudy
2:52 AM 21.0 °F 14.6 °F 19.0 °F 92% 30.43 in 10.0 mi NNE 4.6 mph - N/A   Overcast
3:23 AM 23.0 °F - 21.2 °F 93% 30.39 in 1.5 mi Calm Calm - N/A   Overcast
3:32 AM 24.8 °F 20.5 °F 21.2 °F 86% 30.39 in 0.5 mi NE 3.5 mph - N/A Fog Light Freezing Fog
3:44 AM 24.8 °F - 23.0 °F 93% 30.39 in 0.2 mi Calm Calm - N/A Fog Light Freezing Fog
3:52 AM 24.1 °F - 21.9 °F 91% 30.43 in 0.2 mi Calm Calm - N/A Fog Light Freezing Fog
4:00 AM 23.0 °F - 21.2 °F 93% 30.39 in 0.5 mi Calm Calm - N/A Fog Light Freezing Fog
4:36 AM 23.0 °F - 21.2 °F 93% 30.39 in 0.2 mi Calm Calm - N/A Fog Light Freezing Fog
4:52 AM 24.1 °F 19.7 °F 23.0 °F 96% 30.44 in 0.2 mi NW 3.5 mph - 0.00 in Fog Light Freezing Fog
5:08 AM 24.8 °F 20.5 °F 23.0 °F 93% 30.39 in 0.5 mi NNW 3.5 mph - N/A Fog Light Freezing Fog
5:18 AM 24.8 °F 20.5 °F 24.8 °F 100% 30.39 in 0.2 mi North 3.5 mph - N/A Fog Light Freezing Fog
5:30 AM 24.8 °F 17.9 °F 24.8 °F 100% 30.39 in 0.5 mi North 5.8 mph - N/A Fog Light Freezing Fog
5:52 AM 25.0 °F 16.3 °F 24.1 °F 96% 30.45 in 0.5 mi North 8.1 mph - N/A Fog Light Freezing Fog
6:52 AM 25.0 °F 19.3 °F 24.1 °F 96% 30.45 in 0.5 mi North 4.6 mph - N/A Fog Light Freezing Fog
7:14 AM 26.6 °F 20.0 °F 24.8 °F 93% 30.39 in 0.2 mi North 5.8 mph - N/A Fog Light Freezing Fog
7:52 AM 27.0 °F 20.5 °F 25.0 °F 92% 30.45 in 0.2 mi North 5.8 mph - N/A Fog Light Freezing Fog
8:52 AM 28.0 °F 20.8 °F 26.1 °F 92% 30.46 in 0.2 mi NNE 6.9 mph - N/A Fog Light Freezing Fog
9:03 AM 28.4 °F 21.2 °F 26.6 °F 93% 30.40 in 0.5 mi NE 6.9 mph - N/A Fog Light Freezing Fog
9:31 AM 28.4 °F 23.3 °F 26.6 °F 93% 30.41 in 2.0 mi NE 4.6 mph - N/A   Overcast
9:39 AM 28.4 °F 23.3 °F 26.6 °F 93% 30.42 in 6.0 mi NE 4.6 mph - N/A   Overcast
9:52 AM 28.0 °F 21.7 °F 27.0 °F 96% 30.47 in 4.0 mi ENE 5.8 mph - N/A   Overcast
10:37 AM 30.2 °F 26.7 °F 28.4 °F 93% 30.41 in 5.0 mi NNE 3.5 mph - N/A   Overcast
10:47 AM 30.2 °F - 28.4 °F 93% 30.40 in 1.8 mi Calm Calm - 0.00 in Snow Light Snow
10:48 AM 30.0 °F - 28.0 °F 92% 30.45 in 1.8 mi Calm Calm - 0.00 in Snow Light Snow
10:55 AM 30.2 °F - 28.4 °F 93% 30.41 in 3.0 mi Calm Calm - 0.00 in   Overcast
11:52 AM 30.0 °F 25.2 °F 28.0 °F 92% 30.44 in 3.0 mi North 4.6 mph - 0.00 in   Overcast
12:52 PM 28.9 °F - 28.0 °F 96% 30.41 in 6.0 mi Calm Calm - N/A   Overcast
1:28 PM 28.4 °F - 28.4 °F 100% 30.34 in 6.0 mi Calm Calm - N/A   Overcast
1:52 PM 28.9 °F - 27.0 °F 92% 30.38 in 6.0 mi Calm Calm - N/A   Overcast
2:52 PM 30.0 °F 26.5 °F 27.0 °F 88% 30.36 in 6.0 mi SSE 3.5 mph - N/A   Overcast
3:40 PM 30.2 °F 25.4 °F 26.6 °F 86% 30.31 in 8.0 mi South 4.6 mph - N/A   Overcast
3:52 PM 28.9 °F 25.2 °F 27.0 °F 92% 30.36 in 8.0 mi SW 3.5 mph - N/A   Overcast
4:52 PM 28.9 °F - 28.0 °F 96% 30.36 in 10.0 mi Calm Calm - N/A   Overcast
5:52 PM 28.9 °F 23.9 °F 27.0 °F 92% 30.35 in 9.0 mi SW 4.6 mph - N/A   Overcast
6:52 PM 28.9 °F - 28.0 °F 96% 30.35 in 8.0 mi Calm Calm - N/A   Overcast
7:52 PM 28.9 °F - 28.0 °F 96% 30.33 in 6.0 mi Calm Calm - N/A   Overcast
8:52 PM 28.9 °F 25.2 °F 27.0 °F 92% 30.33 in 7.0 mi West 3.5 mph - N/A   Overcast
9:32 PM 28.4 °F - 28.4 °F 100% 30.30 in 9.0 mi Calm Calm - N/A   Overcast
9:52 PM 28.9 °F - 28.0 °F 96% 30.32 in 9.0 mi Calm Calm - N/A   Overcast
10:52 PM 28.9 °F - 28.0 °F 96% 30.32 in 8.0 mi Calm Calm - N/A   Overcast
11:11 PM 28.4 °F - 28.4 °F 100% 30.26 in 9.0 mi Calm Calm - N/A   Overcast
11:22 PM 30.2 °F - 28.4 °F 93% 30.26 in 10.0 mi Calm Calm - N/A   Overcast
11:52 PM 30.0 °F - 26.1 °F 85% 30.30 in 10.0 mi Calm Calm - N/A   Overcast